Location: Taipo
(41.0000°S, 175.9500°E)
Time: 08:33:02
(UTC+00:00)

SMAP - Visible Passes

Search period start: 24 July 2024 00:00
Search period end: 03 August 2024 00:00
Orbit: 681 x 683 km, 98.1° (Epoch: 23 July)

Date Brightness Start Highest point End Pass type
(mag) Time Alt. Az. Time Alt. Az. Time Alt. Az.
24 Jul 3.2 06:45:53 10° S 06:50:38 76° WSW 06:55:18 10° NNW visible
24 Jul 6.0 16:14:40 10° E 16:16:31 12° ESE 16:18:22 10° SE visible
24 Jul 3.0 17:48:29 10° N 17:53:10 78° WNW 17:57:55 10° SSW visible
25 Jul 4.1 05:45:40 10° SE 05:49:35 25° E 05:53:28 10° NNE visible
25 Jul 4.7 07:22:42 10° S 07:26:55 33° WSW 07:31:04 10° NW visible
25 Jul 5.1 16:48:40 10° ENE 16:52:33 26° ESE 16:56:28 10° SSE visible
25 Jul 3.8 18:25:33 10° NNW 18:29:44 32° W 18:33:59 10° SSW visible
26 Jul 3.1 06:21:30 10° SSE 06:26:12 60° E 06:30:49 10° N visible
26 Jul 5.9 08:00:18 10° SSW 08:03:00 15° WSW 08:05:42 10° W visible
26 Jul 3.6 17:24:10 10° NNE 17:28:46 60° ESE 17:33:26 10° S visible
27 Jul 3.7 06:57:58 10° S 07:02:37 57° WSW 07:07:12 10° NNW visible
27 Jul 5.8 16:25:35 10° E 16:28:22 16° ESE 16:31:10 10° SSE visible
27 Jul 3.1 18:00:35 10° N 18:05:12 58° W 18:09:53 10° SSW visible
28 Jul 3.8 05:57:22 10° SSE 06:01:40 33° E 06:05:53 10° NNE visible
28 Jul 5.2 07:34:58 10° SSW 07:38:49 25° WSW 07:42:39 10° WNW visible
28 Jul 4.6 17:00:15 10° NE 17:04:28 34° ESE 17:08:42 10° S visible
28 Jul 4.2 18:38:00 10° NNW 18:41:49 24° W 18:45:41 10° SW visible
29 Jul 3.0 06:33:26 10° SSE 06:38:12 81° ENE 06:42:53 10° N visible
29 Jul 6.1 08:13:12 10° SW 08:14:50 12° WSW 08:16:29 10° W visible
29 Jul 3.1 17:36:03 10° NNE 17:40:44 79° ESE 17:45:29 10° S visible
30 Jul 4.2 07:10:04 10° S 07:14:33 43° WSW 07:18:58 10° NW visible
30 Jul 5.5 16:36:48 10° ENE 16:40:13 20° ESE 16:43:39 10° SSE visible
30 Jul 3.4 18:12:46 10° N 18:17:13 43° W 18:21:44 10° SSW visible
31 Jul 3.4 06:09:09 10° SSE 06:13:42 44° E 06:18:09 10° N visible
31 Jul 5.6 07:47:18 10° SSW 07:50:41 20° WSW 07:54:02 10° WNW visible
31 Jul 4.2 17:11:55 10° NE 17:16:21 44° ESE 17:20:51 10° S visible
31 Jul 4.5 18:50:37 10° NW 18:53:53 19° W 18:57:12 10° SW visible
01 Aug 3.2 06:45:25 10° S 06:50:10 77° WSW 06:54:50 10° NNW visible
01 Aug 6.1 16:14:15 10° E 16:16:02 12° ESE 16:17:50 10° SE visible
01 Aug 3.0 17:48:01 10° N 17:52:42 78° WNW 17:57:27 10° SSW visible
02 Aug 4.1 05:45:10 10° SE 05:49:05 25° E 05:52:57 10° NNE visible
02 Aug 4.7 07:22:12 10° S 07:26:26 33° WSW 07:30:36 10° NW visible
02 Aug 5.1 16:48:11 10° ENE 16:52:03 26° ESE 16:55:57 10° SSE visible
02 Aug 3.8 18:25:01 10° NNW 18:29:14 32° W 18:33:29 10° SSW visible
